DELTA 1 DEB, 42583

Orbit data source: Space-Track

DELTA 1 DEB, 42583 is space debris in SSO originally from a launch on Tue, 06 Nov 1973 UTC launched from the Air Force Western Test Range (AFWTR). Debris objects in space refer to the collection of defunct objects orbiting the Earth. Examples of debris include non-operational satellites, rocket bodies, and fragments generated from explosions, collisions, or faulty payload assembly.

Loading next visibility...
Identifier
42583, 1973-086HX
Orbit
SSO
Country
Flag of USUS
Related business
Manufacturer
Unknown
Mission
Spacecraft
Bus & Motor
Unknown
Mass
Unknown
Launch date (UTC)
1973-11-06 (53 years ago)
Launch vehicle
Unknown
Launch site
Air Force Western Test Range (AFWTR)
Object type
Payload
Rocket body
Debris
Shape & HBR
Unknown shape, 0.1 m
Radar Cross Section
Small (<0.1 m²)

Expand to show TLE details & history
Last TLE update: 3 weeks ago

TLE from 3 weeks ago
0 DELTA 1 DEB
1 42583U 73086HX  26153.19610740  .00000265  00000-0  24289-2 0  9991
2 42583 101.8483 142.8150 0094209 150.9572 209.6774 12.34733945522503
Epoch: 2026-06-02T04:42Z
TLE epoch observation values (Epoch: 2026-06-02T04:42:23.679Z)
Latitude
-0.00007°
Longitude
-178.4562°
Altitude
1,596.455 km
Speed
7.042 km/s
True Right ascension
09h 31m 15s
True Declination
0° 00' 00"
Sunlit
Object was in daylight at epoch
Visualization orbit readout
Latitude
Unknown
Longitude
Unknown
Altitude
Unknown
Speed
Unknown
Apparent Right ascension
Unknown
Apparent Declination
Unknown
Sunlit
N/A
Visualization observer readout
Local Sidereal Time
21:37:33
Azimuth
Unknown
Elevation
Unknown
Doppler factor
Unknown
Orbital elements
Apogee altitude
1,601.048 km
Perigee altitude
1,452.109 km
Semi-major axis
7,904.715 km
Eccentricity
0.00942
Inclination
101.8483°
RAAN
142.815°
Arg. of periapsis
150.9572°
True anomaly
209.14832°
Mean anomaly
209.6774°
Eccentric anomaly
209.41232°
Mean motion
3.08826 °/min
Orbital period
116.57 mins
BSTAR
0.0024289
Loading maneuver chart data...
Computing Atmospheric mass density...
Loading historical data...
Loading historical data...
Loading historical data...
Loading historical data...
Loading historical data...
Loading historical data...
Loading historical data...

Documentation

Showing up to 5 results
|